Location: Croissy-Beaubourg
(48.8283°N, 2.6696°E)
Time: 21:45:12
(UTC+00:00)

H-2A R/B - Pass Details

Date: 16 October 2021
Orbit: 577 x 653 km, 98.5° (Epoch: 06 December)

Event Time Altitude Azimuth Distance (km) Brightness Sun altitude
Rises 19:49:19 0° 5° (N) 2,807 5.6 -28.7°
Reaches altitude 10° 19:51:42 10° 353° (N) 1,903 4.9 -29.1°
Maximum altitude 19:55:09 26° 296° (WNW) 1,147 4.0 -29.6°
Drops below altitude 10° 19:58:36 10° 239° (WSW) 1,902 4.9 -30.1°
Sets 20:00:59 0° 227° (SW) 2,805 5.7 -30.5°
